Regional Weather Roundup
Issued by NWS State College, PA

Home | Current Version | Previous Version | Text Only | Print | Product List | Glossary Off
Versions: 1 2 3 4 5 6 7 8 9 10 11 12 13 14 15 16 17 18 19 20 21 22 23 24 25 26 27 28 29 30 31 32 33 34 35 36 37 38 39 40 41 42 43 44 45 46 47 48 49 50

000
ASUS41 KCTP 250310
RWRCTP

REGIONAL WEATHER ROUNDUP
NATIONAL WEATHER SERVICE STATE COLLEGE PA
1100 PM EDT FRI APR 24 2015

Note: "fair" indicates few or no clouds below 12,000 feet with no
significant weather and/or obstructions to visibility.

* = STATION THAT DOES NOT REPORT PRECIPITATION /E.G. RAIN...SNOW...ETC/
    THUNDER OR FOG.

PAZ002>004-007>009-013>016-020>023-029>032-250400-
WESTERN PENNSYLVANIA

CITY           SKY/WX    TMP DP  RH WIND       PRES   REMARKS
ERIE           CLEAR     33  21  61 CALM      30.02F
MEADVILLE      CLEAR     35  18  49 CALM      30.00S
FRANKLIN*      CLEAR     34  18  51 N7        30.01S
NEW CASTLE     FAIR      38  20  48 NE6       30.02F
BEAVER COUNTY  NOT AVBL
BUTLER*        CLEAR     34  19  55 NE6       30.01F
PITTSBURGH INT PTCLDY    44  17  33 VRB3      29.98F
PITTSBURGH     CLEAR     41  16  36 N7        29.97F
INDIANA*       CLOUDY    37  19  48 CALM      30.03S
LATROBE        NOT AVBL
WASHINGTON CO* CLEAR     36  27  69 CALM      30.00S
$$

PAZ004>006-010>012-017>019-024>028-033>037-041-042-045-046-049>053-250400-
CENTRAL PENNSYLVANIA

CITY           SKY/WX    TMP DP  RH WIND       PRES   REMARKS
BRADFORD       CLEAR     31  17  56 W7        29.97S
DUBOIS         CLEAR     35  13  40 NW5       29.97S
CLEARFIELD     CLEAR     37  10  32 NW5       29.99R
JOHNSTOWN      CLEAR     37  15  40 NW12      29.95F
ALTOONA        CLEAR     42  14  32 CALM      29.98R
STATE COLLEGE  CLEAR     40  11  30 NW10G22   29.98R
WILLIAMSPORT   CLEAR     40  18  41 N5        29.97S
SELINSGROVE    CLEAR     34  24  67 N5        29.97S
FT INDIANTOWN  CLEAR     46  10  23 N7        29.95R
CAPITAL CITY   CLEAR     49  12  22 NW14      29.95R
HARRISBURG     PTCLDY    49   9  19 N13       29.94R
YORK           CLEAR     34  25  69 NW3       29.95R
$$

PAZ038>040-043-044-047-048-054-055-060>062-067>071-250400-
EASTERN PENNSYLVANIA

CITY           SKY/WX    TMP DP  RH WIND       PRES   REMARKS
SCRANTON       CLOUDY    37  21  52 N3        29.94S
MOUNT POCONO   CLEAR     33  18  53 NW15G24   29.87S
ALLENTOWN      CLEAR     38  21  50 CALM      29.96R
QUAKERTOWN*    FAIR      39  21  48 N7        29.96R
READING        CLEAR     43  20  39 N10       29.94S
LANCASTER      CLEAR     43  15  32 NW9       29.93S
COATESVILLE    CLEAR     45  16  31 N5        29.94R
POTTSTOWN      CLEAR     41  20  43 N8        29.96R
BLUE BELL      FAIR      43  23  45 N3        29.94R
DOYLESTOWN     CLEAR     39  20  46 N9        29.94R
WILLOW GROVE   NOT AVBL
NORTH PHILA    CLEAR     43  20  39 NE10      29.96R
PHILADELPHIA   CLEAR     47  20  34 N13       29.95R
$$



USA.gov is the U.S. government's official web portal to all federal, state and local government web resources and services.